Location: Bennemühlen
(52.5740°N, 9.7135°E)
Time: 22:16:23
(UTC+00:00)

Vanguard 1 Rocket - All Passes

Search period start: 18 February 2026 00:00
Search period end: 28 February 2026 00:00
Orbit: 652 x 4215 km, 34.3° (Epoch: 18 February)

Date Brightness Start Highest point End Pass type
(mag) Time Alt. Az. Time Alt. Az. Time Alt. Az.
18 Feb - 12:00:01 10° SSW 12:07:24 23° SE 12:18:43 10° E daylight
18 Feb - 14:21:18 10° SW 14:32:19 39° S 14:50:56 10° ESE daylight
18 Feb - 16:45:35 10° WSW 16:59:37 36° SSW 17:20:22 10° SE visible
18 Feb - 19:13:50 10° WSW 19:27:15 21° SW 19:43:13 10° S visible
19 Feb - 10:51:34 10° SSE 10:55:45 13° SE 11:01:01 10° ESE daylight
19 Feb - 13:10:12 10° SW 13:19:20 33° SSE 13:34:43 10° ESE daylight
19 Feb - 15:33:17 10° WSW 15:45:36 38° S 16:05:29 10° SE daylight
19 Feb - 17:59:17 10° WSW 18:13:13 28° SSW 18:31:47 10° SSE visible
20 Feb - 11:59:49 10° SSW 12:07:01 25° SSE 12:18:19 10° ESE daylight
20 Feb - 14:21:33 10° WSW 14:32:03 37° S 14:49:52 10° ESE daylight
20 Feb - 16:46:04 10° WSW 16:59:10 32° SSW 17:18:30 10° SSE visible
20 Feb - 19:15:38 10° WSW 19:26:27 17° SW 19:39:08 10° S visible
21 Feb - 10:50:41 10° S 10:55:18 15° SE 11:01:26 10° ESE daylight
21 Feb - 13:10:23 10° SW 13:19:05 33° SSE 13:33:53 10° ESE daylight
21 Feb - 15:33:41 10° WSW 15:45:18 35° S 16:03:59 10° SE daylight
21 Feb - 18:00:15 10° WSW 18:12:38 23° SSW 18:28:55 10° S visible
22 Feb - 11:59:48 10° SSW 12:06:45 26° SSE 12:17:49 10° ESE daylight
22 Feb - 14:21:54 10° WSW 14:31:51 35° S 14:48:40 10° SE daylight
22 Feb - 16:46:44 10° WSW 16:58:45 28° SSW 17:16:18 10° SSE visible
22 Feb - 19:19:11 10° WSW 19:25:43 12° SW 19:32:59 10° SSW visible
23 Feb - 10:50:12 10° S 10:54:58 17° SE 11:01:32 10° ESE daylight
23 Feb - 13:10:39 10° SW 13:18:56 32° S 13:33:00 10° ESE daylight
23 Feb - 15:34:13 10° WSW 15:45:03 32° SSW 16:02:15 10° SE daylight
23 Feb - 18:01:44 10° WSW 18:12:06 18° SW 18:25:18 10° S visible
24 Feb - 11:59:56 10° SSW 12:06:35 26° SSE 12:17:15 10° ESE daylight
24 Feb - 14:22:22 10° WSW 14:31:43 33° S 14:47:20 10° SE daylight
24 Feb - 16:47:40 10° WSW 16:58:25 24° SSW 17:13:40 10° SSE daylight
25 Feb - 10:49:58 10° S 10:54:46 18° SSE 11:01:28 10° ESE daylight
25 Feb - 13:11:02 10° SW 13:18:52 31° S 13:32:01 10° ESE daylight
25 Feb - 15:34:55 10° WSW 15:44:52 27° SSW 16:00:15 10° SSE daylight
25 Feb - 18:04:21 10° WSW 18:11:38 14° SW 18:20:19 10° SSW visible
26 Feb - 12:00:11 10° SW 12:06:31 26° SSE 12:16:38 10° ESE daylight
26 Feb - 14:22:57 10° WSW 14:31:39 29° S 14:45:50 10° SE daylight
26 Feb - 16:49:02 10° WSW 16:58:08 19° SSW 17:10:26 10° S daylight
27 Feb - 10:49:58 10° SSW 10:54:39 19° SSE 11:01:16 10° ESE daylight
27 Feb - 13:11:31 10° SW 13:18:52 28° S 13:30:56 10° SE daylight
27 Feb - 15:35:52 10° WSW 15:44:44 23° SSW 15:57:54 10° SSE daylight
